Weather History for KEBG - February, 2013

Change the Weather History Date:

Wednesday, February 20, 2013

  Actual Average (KMFE) Record (KMFE)
Temperature  
Mean Temperature 74 °F 66 °F  
Max Temperature 82 °F 76 °F 96 °F (1986)
Min Temperature 67 °F 55 °F 35 °F (1879)
Degree Days  
Heating Degree Days 0 3  
Month to date heating degree days 85  
Since 1 July heating degree days 512  
Cooling Degree Days 10 4  
Month to date cooling degree days 62  
Year to date cooling degree days 124  
Growing Degree Days 24 (Base 50)    
Moisture  
Dew Point 64 °F    
Average Humidity 72    
Maximum Humidity 85    
Minimum Humidity 49    
Precipitation  
Precipitation 0.00 in 0.03 in 0.43 in (1982)
Month to date precipitation 0.84  
Year to date precipitation 1.89  
Sea Level Pressure  
Sea Level Pressure 29.84 in    
Wind  
Wind Speed 15 mph (SE)    
Max Wind Speed 29 mph    
Max Gust Speed 38 mph    
Visibility 6 miles    
Events      
T = Trace of Precipitation, MM = Missing Value Source: NWS Daily Summary

Daily Weather History Graph

Daily Weather History Graph

Search for Another Location

Airport or City:

Trip Planner

Search our weather history database for the weather conditions in past years. The results will help you decide how hot, cold, wet, or windy it might be!

Date:

Astronomy

Feb. 20, 2013 Rise Set
Actual Time 7:04 AM CST 6:28 PM CST
Civil Twilight 6:40 AM CST 6:52 PM CST
Nautical Twilight 6:13 AM CST 7:19 PM CST
Astronomical Twilight 5:46 AM CST 7:46 PM CST
Moon 2:07 PM CST (2/20) 3:08 AM CST (2/20)
Length of Visible Light 12h 11m
Length of Day
11h 24m
Waxing Gibbous, 76% of the Moon is Illuminated
Feb 20
Waxing Gibbous
Feb 25
Full
Mar 4
Last Quarter
Mar 11
New
Mar 19
First Quarter

Hourly Weather History & Observations

Time (CST) Temp. Heat Index Dew Point Humidity Pressure Visibility Wind Dir Wind Speed Gust Speed Precip Events Conditions
12:15 AM 68.2 °F - 62.1 °F 81% 29.99 in 7.0 mi ESE 16.1 mph 23.0 mph N/A   Mostly Cloudy
12:35 AM 68.0 °F - 62.2 °F 82% 29.99 in 7.0 mi ESE 15.0 mph 20.7 mph N/A   Scattered Clouds
12:55 AM 68.0 °F - 62.6 °F 83% 29.98 in 7.0 mi ESE 12.7 mph - N/A   Mostly Cloudy
1:15 AM 67.5 °F - 62.6 °F 84% 29.98 in 7.0 mi ESE 13.8 mph - N/A   Mostly Cloudy
1:35 AM 67.6 °F - 62.6 °F 84% 29.98 in 7.0 mi ESE 10.4 mph - N/A   Mostly Cloudy
1:55 AM 68.0 °F - 62.8 °F 83% 29.97 in 5.0 mi ESE 11.5 mph - N/A   Haze
2:15 AM 68.2 °F - 63.0 °F 83% 29.97 in 7.0 mi East 10.4 mph - N/A   Mostly Cloudy
2:35 AM 68.0 °F - 62.8 °F 83% 29.97 in 7.0 mi East 8.1 mph - N/A   Mostly Cloudy
2:55 AM 68.2 °F - 63.0 °F 83% 29.96 in 7.0 mi ESE 8.1 mph - N/A   Overcast
3:15 AM 68.4 °F - 63.1 °F 83% 29.95 in 7.0 mi East 8.1 mph - N/A   Overcast
3:35 AM 68.2 °F - 63.1 °F 84% 29.95 in 7.0 mi East 8.1 mph - N/A   Mostly Cloudy
3:55 AM 68.4 °F - 63.5 °F 84% 29.95 in 7.0 mi East 8.1 mph - N/A   Mostly Cloudy
4:15 AM 68.7 °F - 63.5 °F 83% 29.94 in 5.0 mi East 6.9 mph - N/A   Haze
4:35 AM 68.9 °F - 63.7 °F 83% 29.94 in 5.0 mi ESE 8.1 mph - N/A   Haze
4:55 AM 69.1 °F - 63.7 °F 83% 29.93 in 7.0 mi ESE 9.2 mph - N/A   Overcast
5:15 AM 68.9 °F - 63.7 °F 83% 29.94 in 5.0 mi East 8.1 mph - N/A   Haze
5:35 AM 68.5 °F - 63.5 °F 84% 29.94 in 5.0 mi East 5.8 mph - N/A   Haze
5:55 AM 68.0 °F - 63.5 °F 85% 29.94 in 7.0 mi East 6.9 mph - N/A   Overcast
6:15 AM 68.2 °F - 63.5 °F 85% 29.94 in 5.0 mi East 8.1 mph - N/A   Overcast
6:35 AM 69.4 °F - 64.6 °F 84% 29.94 in 7.0 mi ESE 9.2 mph - N/A   Overcast
6:55 AM 69.4 °F - 64.6 °F 84% 29.94 in 5.0 mi ESE 8.1 mph - N/A   Haze
7:15 AM 69.6 °F - 64.8 °F 84% 29.94 in 4.0 mi ESE 9.2 mph - N/A   Haze
7:35 AM 69.8 °F - 65.1 °F 85% 29.93 in 4.0 mi ESE 11.5 mph - N/A   Haze
7:55 AM 70.2 °F - 65.3 °F 85% 29.93 in 5.0 mi SE 12.7 mph - N/A   Haze
8:15 AM 71.1 °F - 66.2 °F 85% 29.96 in 4.0 mi SE 6.9 mph - N/A   Haze
8:35 AM 71.6 °F - 66.2 °F 83% 29.94 in 4.0 mi SE 9.2 mph - N/A   Haze
8:55 AM 72.1 °F - 66.4 °F 82% 29.93 in 4.0 mi SSE 11.5 mph - N/A   Haze
9:15 AM 73.4 °F - 66.6 °F 79% 29.93 in 5.0 mi SSE 16.1 mph 19.6 mph N/A   Haze
9:35 AM 74.7 °F - 66.6 °F 76% 29.91 in 5.0 mi SSE 19.6 mph - N/A   Haze
9:55 AM 75.2 °F - 66.2 °F 73% 29.91 in 5.0 mi SSE 16.1 mph 28.8 mph N/A   Haze
10:15 AM 75.6 °F - 66.0 °F 72% 29.92 in 5.0 mi SSE 18.4 mph 24.2 mph N/A   Haze
10:35 AM 76.8 °F - 65.7 °F 68% 29.90 in 5.0 mi SSE 19.6 mph 25.3 mph N/A   Haze
10:55 AM 78.3 °F - 64.6 °F 63% 29.89 in 5.0 mi SSE 19.6 mph 27.6 mph N/A   Haze
11:15 AM 79.0 °F - 63.9 °F 60% 29.87 in 7.0 mi SSE 21.9 mph 28.8 mph N/A   Overcast
11:35 AM 79.7 °F - 64.4 °F 59% 29.86 in 5.0 mi SSE 23.0 mph 29.9 mph N/A   Haze
11:55 AM 79.9 °F - 63.7 °F 58% 29.85 in 5.0 mi SSE 24.2 mph 28.8 mph N/A   Haze
12:15 PM 80.6 °F 82.0 °F 63.5 °F 56% 29.85 in 5.0 mi SSE 21.9 mph 31.1 mph N/A   Haze
1:15 PM 81.5 °F 82.4 °F 61.9 °F 51% 29.80 in 7.0 mi South 27.6 mph 33.4 mph N/A   Overcast
1:35 PM 82.6 °F 83.4 °F 62.2 °F 50% 29.77 in 7.0 mi SSE 28.8 mph 35.7 mph N/A   Mostly Cloudy
1:55 PM 82.0 °F 82.8 °F 61.9 °F 50% 29.77 in 5.0 mi SSE 23.0 mph 31.1 mph N/A   Haze
2:15 PM 82.4 °F 83.0 °F 61.7 °F 49% 29.75 in 7.0 mi SSE 25.3 mph 33.4 mph N/A   Mostly Cloudy
2:55 PM 81.9 °F 82.8 °F 62.1 °F 51% 29.74 in 7.0 mi SSE 21.9 mph 34.5 mph N/A   Scattered Clouds
3:15 PM 81.5 °F 82.4 °F 61.9 °F 51% 29.74 in 5.0 mi SSE 21.9 mph 28.8 mph N/A   Haze
3:35 PM 80.6 °F 81.7 °F 61.9 °F 53% 29.74 in 5.0 mi SSE 23.0 mph 27.6 mph N/A   Haze
4:15 PM 80.2 °F 81.3 °F 61.7 °F 53% 29.72 in 5.0 mi SSE 21.9 mph 31.1 mph N/A   Haze
4:35 PM 79.7 °F - 61.7 °F 54% 29.71 in 7.0 mi SSE 19.6 mph 28.8 mph N/A   Clear
4:55 PM 79.2 °F - 61.7 °F 55% 29.71 in 7.0 mi SSE 19.6 mph 29.9 mph N/A   Clear
5:15 PM 78.8 °F - 62.2 °F 57% 29.71 in 7.0 mi SSE 18.4 mph 25.3 mph N/A   Scattered Clouds
5:35 PM 78.3 °F - 62.1 °F 57% 29.71 in 7.0 mi SSE 18.4 mph 26.5 mph N/A   Clear
5:55 PM 77.9 °F - 62.1 °F 58% 29.70 in 7.0 mi SSE 21.9 mph 26.5 mph N/A   Clear
6:35 PM 77.0 °F - 63.5 °F 63% 29.69 in 7.0 mi SSE 18.4 mph 23.0 mph N/A   Clear
6:55 PM 77.0 °F - 64.6 °F 65% 29.69 in 7.0 mi SSE 23.0 mph 27.6 mph N/A   Clear
7:15 PM 76.3 °F - 64.9 °F 68% 29.69 in 7.0 mi SSE 20.7 mph 32.2 mph N/A   Clear
7:35 PM 75.9 °F - 65.5 °F 70% 29.69 in 7.0 mi SSE 16.1 mph 21.9 mph N/A   Scattered Clouds
7:55 PM 75.6 °F - 66.2 °F 73% 29.69 in 7.0 mi SSE 17.3 mph 25.3 mph N/A   Scattered Clouds
8:15 PM 75.7 °F - 66.4 °F 73% 29.69 in 7.0 mi SSE 19.6 mph 27.6 mph N/A   Overcast
8:35 PM 75.7 °F - 66.6 °F 73% 29.69 in 7.0 mi SSE 17.3 mph 27.6 mph N/A   Overcast
8:55 PM 75.9 °F - 66.6 °F 73% 29.70 in 7.0 mi SSE 19.6 mph 27.6 mph N/A   Overcast
9:15 PM 75.7 °F - 66.7 °F 74% 29.70 in 7.0 mi SSE 19.6 mph 27.6 mph N/A   Overcast
9:35 PM 75.7 °F - 66.6 °F 73% 29.70 in 7.0 mi SSE 21.9 mph 28.8 mph N/A   Overcast
10:15 PM 75.4 °F - 66.2 °F 73% 29.69 in 7.0 mi SSE 17.3 mph 28.8 mph N/A   Overcast
10:35 PM 75.4 °F - 66.2 °F 73% 29.68 in 7.0 mi SSE 21.9 mph 28.8 mph N/A   Overcast
10:55 PM 75.4 °F - 66.2 °F 73% 29.67 in 7.0 mi SSE 21.9 mph 28.8 mph N/A   Overcast
11:15 PM 75.7 °F - 66.2 °F 72% 29.66 in 7.0 mi SSE 21.9 mph 28.8 mph N/A   Overcast
11:35 PM 75.6 °F - 66.2 °F 73% 29.66 in 7.0 mi SSE 20.7 mph 38.0 mph N/A   Overcast
11:55 PM 75.4 °F - 66.2 °F 73% 29.65 in 7.0 mi SSE 20.7 mph 28.8 mph N/A   Overcast